Location: *
(39.6167°S, 171.5333°W)
Time: 04:41:54
(UTC+00:00)

Cosmos 1190 Rocket - Pass Details

Date: 13 May 2021
Orbit: 756 x 780 km, 74.1° (Epoch: 16 June)

Event Time Altitude Azimuth Distance (km) Brightness Sun altitude
Exits shadow 15:45:01 59° 58° (ENE) 908 4.5 -30.3°
Maximum altitude 15:45:20 60° 75° (ENE) 899 4.5 -30.2°
Drops below altitude 10° 15:50:37 10° 154° (SSE) 2,365 6.8 -29.2°
Sets 15:53:03 0° 157° (SSE) 3,301 7.6 -28.7°
